Simultaneous Nadir Overpasses (SNOs) Predictions

Prediction of SNOs between GOES-16 and AQUA Satellite Orbit:

Table of predicted SNOs for the next 14.0 days since TLE Epoch: 10/9/2021
Index Date Time (GOES-16) GOES-16 Lat,Lon AQUA Lat,Lon Distance(km) Time Diff (sec)
1 10/09/2021 06:17:24 -0.07, -75.20 -0.96, -70.93 485.74 80
2 10/09/2021 18:41:28 0.06, -75.20 -0.14, -76.12 104.11 80
3 10/11/2021 18:26:37 0.06, -75.21 0.53, -73.17 232.63 80
4 10/12/2021 06:50:32 -0.06, -75.21 0.62, -78.31 353.47 80
5 10/14/2021 06:38:21 -0.06, -75.22 -0.06, -75.36 16.52 80
6 10/16/2021 06:23:29 -0.07, -75.23 -0.68, -72.40 322.06 80
7 10/16/2021 18:47:32 0.06, -75.24 -0.46, -77.58 267.26 80
8 10/18/2021 18:32:40 0.06, -75.26 0.17, -74.62 72.47 80
9 10/20/2021 18:20:28 0.06, -75.30 0.81, -71.66 412.84 80
10 10/21/2021 06:44:24 -0.05, -75.31 0.27, -76.82 172.09 80
